User: anonymous   Login
Location: Zagreb
(45.8000°N, 16.0000°E)
Time: 23:00:29
(UTC+02:00)
Language:

Transit 2A - Orbit

View from above orbital plane
View from above orbital plane
View from above satellite
View from above satellite

Ground track
Ground track

The orbit data is extracted from the following two-line orbital elements,

1    45U 60007A   22221.12390126  .00000159  00000-0  67197-4 0  9994
2    45  66.6947 118.1432 0247619 106.4209 256.4263 14.33883455234900
Epoch (UTC): 09 August 2022 02:58:25
Eccentricity: 0.0247619
inclination: 66.6947°
perigee height: 601 km
apogee height: 956 km
right ascension of ascending node: 118.1432°
argument of perigee: 106.4209°
revolutions per day: 14.33883455
mean anomaly at epoch: 256.4263°
orbit number at epoch: 23490

The dashed part of the orbit path shows where the satellite is in the earth's shadow,  

DLR